[[{"header":{"parameterUnit":"m.s-1","parameterCategory":1,"la1":30.2991,"la2":30.254,"lo1":-89.0895,"lo2":-89.0444,"dx":0.0017,"dy":0.0017,"nx":28,"ny":28,"refTime":"2023-01-27T09:00:00:Z","depth":0,"parameterNumber":2,"parameterNumberName":"U-component_of_WINDS"},"data":[0,0,0,0,0,0,0,0,0,0,0,0,0,0,0,0,0,0,0,0,0,0,0,0,0,0,0,0,0,0,0,0,0,0,0,0,0,0,0,0,0,0,0,0,0,0,0,0,0,0,0,0,0,0,0,0,0,0,-3.9055,-3.9056,0,-3.9158,-3.9159,-3.916,-3.916,-3.9159,-3.9158,-3.9157,-3.926,-3.9264,-3.9268,0,0,0,0,0,0,0,0,0,0,0,0,0,-3.886,-3.8863,-3.9055,-3.9057,-3.9058,-3.9158,-3.9159,-3.9161,-3.9161,-3.9159,-3.9157,-3.9156,-3.9259,-3.9264,-3.9268,0,0,0,0,0,0,0,0,0,0,0,0,0,-3.8952,-3.8864,-3.9055,-3.907,-3.9072,-3.9158,-3.9159,-3.9161,-3.9161,-3.9159,-3.9157,-3.9155,-3.9257,-3.9263,-3.9269,-3.9346,0,0,-3.9287,-3.929,0,0,0,0,0,0,0,0,-3.8946,-3.8959,-3.9067,-3.9069,-3.9072,-3.9144,-3.9128,-3.9223,-3.9162,-3.9127,-3.9157,-3.9154,-3.9223,-3.9232,-3.9255,-3.9351,-3.9355,-3.9288,-3.9292,-3.9294,-3.9296,0,0,0,0,0,0,0,-3.894,-3.8954,-3.9096,-3.9068,-3.9071,-3.9072,-3.9083,-3.9146,-3.9185,-3.913,-3.913,-3.9143,-3.9224,-3.925,-3.9258,-3.9357,-3.9288,-3.9293,-3.9297,-3.9299,-3.9521,-3.9523,0,0,0,0,0,0,-3.8931,-3.8949,-3.9093,-3.9099,-3.9003,-3.9077,-3.9089,-3.9123,-3.9184,-3.9192,-3.9144,-3.9142,-3.924,-3.9251,-3.9262,-3.9355,-3.9294,-3.93,-3.9303,-3.9519,-3.9522,-3.9524,0,0,0,0,0,0,-3.8926,-3.8943,-3.9088,-3.9024,-3.9043,-3.9082,-3.9121,-3.9126,-3.9151,-3.9195,-3.9202,-3.9163,-3.9239,-3.9253,-3.9325,-3.9359,-3.9302,-3.9308,-3.9516,-3.952,-3.9523,-3.9543,0,0,0,0,0,0,-3.8921,-3.8942,-3.8971,-3.9025,-3.9046,-3.915,-3.9123,-3.913,-3.9162,-3.916,-3.9214,-3.9221,-3.9239,-3.9316,-3.9331,-3.9366,-3.9313,-3.9513,-3.9518,-3.9522,-3.954,-3.9547,-3.9553,0,0,0,0,0,-3.8914,-3.8972,-3.8973,-3.899,-3.9084,-3.9152,-3.9164,-3.9183,-3.9165,-3.9194,-3.9223,-3.922,-3.9353,-3.9324,-3.934,-3.9377,-3.9511,-3.9516,-3.9521,-3.9536,-3.9545,-3.9553,0,0,0,0,0,0,-3.892,-3.8979,-3.898,-3.9058,-3.91,-3.9152,-3.919,-3.9192,-3.924,-3.9236,-3.9258,-3.927,-3.9342,-3.9367,-3.9333,-3.9456,-3.943,-3.9439,-3.9436,-3.9445,-3.9451,-3.9442,-3.9317,0,0,0,0,0,-3.8931,-3.8982,-3.9031,-3.9095,-3.9116,-3.915,-3.918,-3.9192,-3.9236,-3.9253,-3.9287,-3.933,-3.9382,-3.9415,-3.9465,-3.9545,-3.9556,-3.9579,-3.9585,-3.9591,-3.9597,-3.9641,-3.9652,-3.9541,-3.9541,-3.9541,0,0,-3.8953,-3.8992,-3.9022,-3.9097,-3.9131,-3.9183,-3.9164,-3.922,-3.9259,-3.9262,-3.9331,-3.9358,-3.9408,-3.9484,-3.9519,-3.9507,-3.9631,-3.9597,-3.9601,-3.9605,-3.9648,-3.9658,-3.9667,-3.9545,-3.9544,-3.9543,0,0,-3.9019,-3.9054,-3.9111,-3.9146,-3.9198,-3.9221,-3.9235,-3.9287,-3.9305,-3.9376,-3.9379,-3.9427,-3.9515,-3.955,-3.958,-3.9663,-3.9661,-3.9679,-3.9713,-3.9756,-3.9764,-3.9772,-3.9801,-3.9811,-3.9686,-3.9686,-3.9686,0,-3.9039,-3.9118,-3.914,-3.9196,-3.9229,-3.9236,-3.9294,-3.9327,-3.9393,-3.9415,-3.9402,-3.9514,-3.9548,-3.9632,-3.9653,-3.9677,-3.9693,-3.9671,-3.9762,-3.977,-3.9777,-3.9805,-3.9815,-3.9687,-3.9687,-3.9687,-3.9687,0,-3.9141,-3.9196,-3.9236,-3.93,-3.9337,-3.9394,-3.9425,-3.9461,-3.947,-3.9494,-3.9566,-3.9608,-3.9667,-3.9688,-3.9697,-3.9775,-3.9766,-3.9757,-3.9731,-3.9789,-3.9815,-3.9826,-3.969,-3.9689,-3.9689,-3.9688,0,0,-3.921,-3.9288,-3.9302,-3.9331,-3.9391,-3.9434,-3.9492,-3.955,-3.958,-3.9627,-3.9675,-3.9752,-3.9744,-3.9778,-3.9792,-3.983,-3.9892,-3.9816,-3.9818,-3.9827,-3.9979,-3.9984,-3.9996,-3.9893,-3.9895,-3.9897,-3.9975,0,-3.9282,-3.9384,-3.9407,-3.9495,-3.9546,-3.9555,-3.9606,-3.9648,-3.9673,-3.972,-3.9748,-3.9801,-3.9788,-3.9808,-3.9846,-3.9876,-3.9922,-3.9871,-3.9937,-3.994,-3.9922,-4.001,-4.0014,-4.0085,-3.9985,-3.9987,-3.9988,0,-3.9378,-3.9427,-3.9521,-3.9575,-3.9597,-3.9642,-3.9698,-3.9743,-3.9792,-3.9807,-3.9846,-3.9857,-3.9918,-3.9891,-3.9975,-3.994,-3.9969,-3.9989,-3.9992,-3.9996,-3.9965,-4.0015,-4.0109,-4.0118,-4.0005,-4.0003,-4.0002,0,-3.9417,-3.9508,-3.9575,-3.9601,-3.9666,-3.9697,-3.9726,-3.9773,-3.9807,-3.9856,-3.9879,-3.9934,-3.9964,-4.0008,-4.0033,-4.0012,-4.0115,-4.0091,-4.0129,-4.0128,-4.0147,-4.0145,-4.0245,-4.017,-4.017,-4.017,-4.017,0,-3.9493,-3.955,-3.9594,-3.9635,-3.97,-3.9726,-3.9789,-3.9817,-3.986,-3.9907,-3.9919,-3.9963,-3.9995,-4.0044,-4.0064,-4.013,-4.0144,-4.0158,-4.0163,-4.0156,-4.0154,-4.0173,-4.0168,-4.0173,-4.0172,-4.0172,-4.0171,0,-3.9547,-3.9579,-3.9653,-3.971,-3.9726,-3.977,-3.9819,-3.9859,-3.9886,-3.9946,-3.9961,-4.0003,-4.0061,-4.0091,-4.0164,-4.0178,-4.0252,-4.0255,-4.0235,-4.0237,-4.0272,-4.0268,-4.0386,-4.0402,-4.0318,-4.0319,-4.032,0,-3.9592,-3.9636,-3.9698,-3.973,-3.976,-3.9813,-3.9848,-3.9877,-3.9913,-3.9973,-4.0007,-4.0066,-4.0114,-4.0208,-4.0244,-4.03,-4.0303,-4.034,-4.0311,-4.0303,-4.0301,-4.0297,-4.0301,-4.0344,-4.0345,-4.0346,-4.0346,0,-3.9668,-3.9682,-3.9733,-3.979,-3.9832,-3.9878,-3.9923,-3.9949,-3.9986,-4.0026,-4.0086,-4.0124,-4.0199,-4.0258,-4.0317,-4.0347,-4.0352,-4.0356,-4.0367,-4.036,-4.0346,-4.0352,-4.0247,-4.0352,-4.0352,-4.0351,-4.0351,-4.0351,-3.9717,-3.9757,-3.9807,-3.9863,-3.9901,-3.9944,-3.9985,-4.0018,-4.0068,-4.0132,-4.0146,-4.021,-4.0259,-4.0339,-4.0371,-4.0421,-4.0414,-4.043,-4.0434,-4.0437,-4.0438,-4.034,-4.0433,-4.0433,-4.0432,-4.0432,-4.0432,0,-3.9792,-3.9826,-3.9878,-3.9941,-3.9986,-3.999,-4.0041,-4.0078,-4.0133,-4.0179,-4.0228,-4.0297,-4.0355,-4.0397,-4.0456,-4.0488,-4.0492,-4.0502,-4.0499,-4.0505,-4.0443,-4.0426,-4.0498,-4.0498,-4.0498,-4.0498,-4.0498,-4.0498,-3.9837,-3.9904,-3.9924,-4.0011,-4.0044,-4.0107,-4.0135,-4.0175,-4.0212,-4.0289,-4.0337,-4.0365,-4.041,-4.0472,-4.0525,-4.0536,-4.0557,-4.0566,-4.0577,-4.0517,-4.051,-4.0503,-4.0487,-4.0571,-4.0571,-4.0636,-4.0636,-4.0637]},{"header":{"parameterUnit":"m.s-1","parameterCategory":1,"la1":30.2991,"la2":30.254,"lo1":-89.0895,"lo2":-89.0444,"dx":0.0017,"dy":0.0017,"nx":28,"ny":28,"refTime":"2023-01-27T09:00:00:Z","depth":0,"parameterNumber":3,"parameterNumberName":"V-component_of_WINDS"},"data":[0,0,0,0,0,0,0,0,0,0,0,0,0,0,0,0,0,0,0,0,0,0,0,0,0,0,0,0,0,0,0,0,0,0,0,0,0,0,0,0,0,0,0,0,0,0,0,0,0,0,0,0,0,0,0,0,0,0,2.8657,2.8658,0,2.869,2.869,2.8691,2.8676,2.8676,2.8675,2.8674,2.8706,2.8708,2.8709,0,0,0,0,0,0,0,0,0,0,0,0,0,2.8585,2.8586,2.8657,2.8658,2.8658,2.869,2.869,2.8691,2.8677,2.8676,2.8675,2.8674,2.8706,2.8708,2.871,0,0,0,0,0,0,0,0,0,0,0,0,0,2.8617,2.8587,2.8657,2.8655,2.8655,2.869,2.869,2.8691,2.8677,2.8676,2.8674,2.8673,2.8705,2.8707,2.871,2.8748,0,0,2.8717,2.8718,0,0,0,0,0,0,0,0,2.8615,2.8619,2.8655,2.8655,2.8655,2.8678,2.8676,2.871,2.8677,2.8669,2.8674,2.8673,2.8698,2.8701,2.8709,2.875,2.8751,2.8717,2.8719,2.872,2.872,0,0,0,0,0,0,0,2.8613,2.8618,2.867,2.8656,2.8656,2.8653,2.8656,2.8683,2.8689,2.8669,2.8668,2.8672,2.8698,2.8707,2.871,2.8751,2.8717,2.8719,2.8721,2.8722,2.8828,2.883,0,0,0,0,0,0,2.861,2.8616,2.8669,2.8671,2.8632,2.8655,2.8659,2.8672,2.8689,2.8691,2.8673,2.8672,2.8704,2.8707,2.8711,2.876,2.872,2.8722,2.8723,2.8827,2.8829,2.883,0,0,0,0,0,0,2.8609,2.8615,2.8668,2.8643,2.865,2.8658,2.8673,2.8673,2.8683,2.8692,2.8693,2.8682,2.8703,2.8708,2.874,2.876,2.8723,2.8725,2.8825,2.8828,2.883,2.8855,0,0,0,0,0,0,2.8607,2.8615,2.8629,2.8644,2.8651,2.8696,2.8674,2.8675,2.8687,2.8685,2.87,2.8702,2.8702,2.8736,2.8742,2.8763,2.8727,2.8824,2.8826,2.8829,2.8853,2.8858,2.8863,0,0,0,0,0,2.8604,2.8634,2.863,2.8636,2.8669,2.8697,2.8701,2.8702,2.8688,2.8703,2.871,2.8701,2.8757,2.874,2.8746,2.8768,2.8822,2.8826,2.8829,2.885,2.8857,2.8862,0,0,0,0,0,0,2.862,2.8636,2.8631,2.8666,2.8681,2.8695,2.8713,2.8708,2.8726,2.8723,2.8723,2.8726,2.876,2.8767,2.8748,2.8808,2.8788,2.8792,2.8802,2.8808,2.8813,2.8811,2.8729,0,0,0,0,0,2.8628,2.8649,2.8661,2.8692,2.8699,2.8705,2.8717,2.8716,2.8731,2.8737,2.8745,2.876,2.8781,2.8795,2.8814,2.8853,2.8858,2.8872,2.8877,2.8881,2.8885,2.8909,2.8916,2.8841,2.8841,2.8841,0,0,2.8644,2.8655,2.8668,2.8695,2.8706,2.8729,2.871,2.8734,2.8752,2.874,2.8772,2.8779,2.8795,2.8832,2.8849,2.8839,2.8907,2.8885,2.8888,2.889,2.8913,2.892,2.8927,2.8843,2.8842,2.8842,0,0,2.8685,2.8695,2.8722,2.8734,2.8752,2.8756,2.8763,2.8778,2.8783,2.8815,2.8808,2.8828,2.8864,2.8877,2.8888,2.8937,2.8931,2.8943,2.897,2.8993,2.8999,2.9004,2.9024,2.9031,2.8947,2.8948,2.8948,0,2.8702,2.8737,2.8737,2.8763,2.8776,2.8768,2.8797,2.8808,2.8831,2.884,2.8829,2.8876,2.8886,2.8927,2.8939,2.8948,2.8957,2.8942,2.8998,2.9004,2.9009,2.9028,2.9035,2.8949,2.8949,2.8949,2.8949,0,2.8759,2.8783,2.8803,2.8827,2.8842,2.8869,2.8874,2.889,2.8888,2.8894,2.8928,2.8941,2.8964,2.8973,2.8971,2.9015,2.9009,2.8998,2.8978,2.9017,2.9035,2.9042,2.8951,2.8951,2.895,2.895,0,0,2.881,2.8835,2.8843,2.8855,2.8875,2.8894,2.8921,2.8945,2.896,2.8976,2.9,2.9032,2.9023,2.9036,2.9035,2.9056,2.9098,2.9043,2.9043,2.9054,2.9149,2.9159,2.9167,2.9093,2.9094,2.9095,2.9149,0,2.8854,2.8903,2.8906,2.8951,2.8974,2.8968,2.8993,2.9008,2.9015,2.9036,2.9043,2.9067,2.9052,2.906,2.908,2.9088,2.9117,2.9084,2.9117,2.9118,2.9115,2.9176,2.9185,2.9235,2.9156,2.9157,2.9158,0,2.8912,2.8933,2.898,2.9,2.901,2.9032,2.9055,2.9075,2.9093,2.9097,2.9113,2.911,2.914,2.9119,2.9161,2.9139,2.9152,2.9159,2.9161,2.9165,2.9141,2.9184,2.9251,2.9259,2.9168,2.9167,2.9167,0,2.8948,2.8987,2.9021,2.9031,2.9054,2.907,2.908,2.9097,2.9112,2.9133,2.9143,2.9167,2.918,2.9198,2.9203,2.9187,2.9246,2.9224,2.9251,2.9251,2.9265,2.9264,2.9337,2.9271,2.927,2.927,2.927,0,2.8998,2.9028,2.9038,2.9059,2.9094,2.9096,2.913,2.9139,2.9155,2.9179,2.9174,2.9197,2.92,2.9224,2.9228,2.9263,2.9269,2.9274,2.9274,2.9275,2.9275,2.9285,2.9282,2.9272,2.9272,2.9271,2.9271,0,2.9044,2.9051,2.9089,2.9108,2.9114,2.9139,2.9155,2.9177,2.9183,2.9214,2.9221,2.9232,2.926,2.9266,2.9298,2.9301,2.9344,2.9341,2.9339,2.9339,2.9366,2.9365,2.9449,2.9462,2.9386,2.9386,2.9387,0,2.9077,2.91,2.9122,2.9139,2.915,2.9175,2.9192,2.9196,2.9213,2.9237,2.9256,2.9283,2.9306,2.9351,2.9362,2.9388,2.9386,2.9414,2.939,2.9391,2.9389,2.9389,2.9392,2.9419,2.942,2.942,2.9421,0,2.9134,2.9138,2.9161,2.9187,2.9207,2.9227,2.9247,2.926,2.9267,2.9287,2.9316,2.9334,2.9368,2.9397,2.9423,2.9434,2.943,2.9429,2.9437,2.9438,2.9437,2.9441,2.9354,2.9427,2.9426,2.9426,2.9425,2.9425,2.9176,2.9198,2.9218,2.9245,2.9261,2.928,2.9301,2.9312,2.9336,2.9366,2.9366,2.9399,2.9419,2.9454,2.9467,2.9493,2.9484,2.9495,2.9498,2.9501,2.9505,2.9432,2.9497,2.9497,2.9497,2.9497,2.9497,0,2.9236,2.9249,2.9274,2.9303,2.9325,2.9319,2.9341,2.936,2.9389,2.9408,2.9431,2.9466,2.9494,2.9508,2.9536,2.9554,2.9553,2.9562,2.9561,2.9564,2.951,2.9501,2.9562,2.9562,2.9562,2.9562,2.9562,2.9562,2.927,2.9307,2.9313,2.9359,2.9372,2.9404,2.9418,2.9436,2.9451,2.9491,2.9515,2.9524,2.9542,2.9571,2.9598,2.9601,2.9613,2.9623,2.9625,2.9574,2.9568,2.9561,2.9554,2.9625,2.9625,2.9678,2.9678,2.9679]}]]